STARLINK-1109 (44945 NORAD) Tracking and Keplerian Element Data

This shows tracking and keplerian element data for the satellite.

Feedback or suggestion? Click here.




ElementValue
Catalog44945
NameSTARLINK-1109
Epoch Orbit1270
Epoch Day88.25001157
Epoch Year2020
RAAN359.4347
Inclination53.0016
Eccentricity0.0001357
Argument of Perigee62.7761
Mean Anonmoly34.9347
Mean Motion15.13013912
Decay Rate-0.00070865
L11 44945U 20001AH 20088.25001157 -.00070865 00000-0 -39885-2 0 9991
L22 44945 53.0016 359.4347 0001357 62.7761 34.9347 15.13013912 12709

Live tracking and technical data element details for STARLINK-1109 (NORAD 44945). STARLINK-1109 can be tracked NOW for your location showing map with azimuth and elevation plus other details from your city location.

Track the satellite on the map from your city or location and see movement details for azimuth, elevation, latitude, longitude, range, height, and movement on the map or in text.







IsCatalogInMostPopularTable: catalog: 44945, numindb: 22
Update: records affected: 1



GetName: 44945 STARLINK-1109

Hit Count: updated at: Sat, 28 Mar 2020 21:08:10 GMT